When you browse on this site, cookies collect data to enhance your experience and personalize the content and advertising you see.
Visit our Privacy Policy to learn more. By continuing to use the site, you agree to this use of cookies and data.
  • In Latvia
  • List of Countries
  • For 7 days
  • Water Temperature
  • Weather Map
  • Weather Widgets
  • user-avatar
    Login

    Hourly Weather Burdin

    Today, 22 August, Thursday

    Time Temperature Precipitation Wind Pressure Humidity
    00:00 +20°C° 0 mm 3 mps 755 mmHg 80%
    01:00 +19°C° 0 mm 3 mps 755 mmHg 84%
    02:00 +19°C° 0 mm 3 mps 755 mmHg 87%
    03:00 +18°C° 0 mm 2 mps 756 mmHg 91%
    04:00 +18°C° 0 mm 2 mps 756 mmHg 90%
    05:00 +19°C° 0 mm 2 mps 756 mmHg 89%
    06:00 +19°C° 0 mm 2 mps 756 mmHg 88%
    07:00 +21°C° 0 mm 3 mps 756 mmHg 79%
    08:00 +22°C° 0 mm 4 mps 756 mmHg 70%
    09:00 +25°C° 0 mm 4 mps 756 mmHg 59%
    10:00 +26°C° 0 mm 4 mps 756 mmHg 55%
    11:00 +28°C° 0 mm 4 mps 756 mmHg 50%
    12:00 +29°C° 0 mm 4 mps 755 mmHg 45%
    13:00 +29°C° 0 mm 4 mps 755 mmHg 43%
    14:00 +30°C° 0 mm 4 mps 755 mmHg 41%
    15:00 +30°C° 0 mm 3 mps 755 mmHg 40%
    16:00 +29°C° 0 mm 3 mps 755 mmHg 44%
    17:00 +28°C° 0 mm 3 mps 755 mmHg 48%
    18:00 +27°C° 0 mm 3 mps 754 mmHg 52%
    19:00 +25°C° 0 mm 3 mps 755 mmHg 56%
    20:00 +24°C° 0 mm 2 mps 755 mmHg 59%
    21:00 +21°C° 0 mm 2 mps 755 mmHg 63%
    22:00 +21°C° 0 mm 2 mps 755 mmHg 65%
    23:00 +20°C° 0 mm 2 mps 755 mmHg 66%

    Tomorrow, 23 August, Friday

    Time Temperature Precipitation Wind Pressure Humidity
    00:00 +20°C° 0 mm 2 mps 754 mmHg 68%
    01:00 +19°C° 0 mm 2 mps 755 mmHg 70%
    02:00 +19°C° 0 mm 2 mps 755 mmHg 72%
    03:00 +19°C° 0 mm 2 mps 755 mmHg 74%
    04:00 +19°C° 0 mm 2 mps 755 mmHg 75%
    05:00 +19°C° 0 mm 2 mps 755 mmHg 75%
    06:00 +19°C° 0 mm 2 mps 755 mmHg 76%
    07:00 +21°C° 0 mm 3 mps 755 mmHg 68%
    08:00 +25°C° 0 mm 3 mps 755 mmHg 61%
    09:00 +27°C° 0 mm 3 mps 755 mmHg 54%
    10:00 +28°C° 0 mm 3 mps 755 mmHg 50%
    11:00 +29°C° 0 mm 3 mps 755 mmHg 47%
    12:00 +30°C° 0 mm 3 mps 755 mmHg 44%
    13:00 +31°C° 0 mm 3 mps 755 mmHg 43%
    14:00 +31°C° 0 mm 3 mps 755 mmHg 42%
    15:00 +31°C° 0 mm 3 mps 755 mmHg 42%
    16:00 +30°C° 0 mm 4 mps 755 mmHg 47%
    17:00 +28°C° 0 mm 4 mps 755 mmHg 53%
    18:00 +27°C° 0 mm 5 mps 755 mmHg 59%
    19:00 +26°C° 0 mm 5 mps 755 mmHg 63%
    20:00 +23°C° 0 mm 6 mps 755 mmHg 68%
    21:00 +22°C° 0 mm 6 mps 756 mmHg 72%
    22:00 +21°C° 0 mm 6 mps 756 mmHg 70%
    23:00 +20°C° 0 mm 6 mps 756 mmHg 67%

    Day after tomorrow, 24 August, Saturday

    Time Temperature Precipitation Wind Pressure Humidity
    00:00 +19°C° 0 mm 5 mps 756 mmHg 64%
    01:00 +19°C° 0 mm 5 mps 756 mmHg 66%
    02:00 +19°C° 0 mm 5 mps 756 mmHg 67%
    03:00 +17°C° 0 mm 5 mps 756 mmHg 69%
    04:00 +17°C° 0 mm 5 mps 756 mmHg 69%
    05:00 +17°C° 0 mm 5 mps 756 mmHg 70%
    06:00 +17°C° 0 mm 5 mps 756 mmHg 70%
    07:00 +19°C° 0 mm 5 mps 756 mmHg 65%
    08:00 +20°C° 0 mm 5 mps 757 mmHg 61%
    09:00 +22°C° 0 mm 5 mps 757 mmHg 56%
    10:00 +23°C° 0 mm 5 mps 757 mmHg 53%
    11:00 +25°C° 0 mm 5 mps 756 mmHg 49%
    12:00 +26°C° 0 mm 5 mps 756 mmHg 45%
    13:00 +27°C° 0 mm 5 mps 756 mmHg 43%
    14:00 +27°C° 0 mm 4 mps 756 mmHg 42%
    15:00 +28°C° 0 mm 4 mps 756 mmHg 40%
    16:00 +27°C° 0 mm 4 mps 756 mmHg 42%
    17:00 +26°C° 0 mm 3 mps 755 mmHg 44%
    18:00 +25°C° 0 mm 2 mps 755 mmHg 46%
    19:00 +23°C° 0 mm 2 mps 755 mmHg 48%
    20:00 +21°C° 0 mm 2 mps 755 mmHg 50%
    21:00 +19°C° 0 mm 2 mps 756 mmHg 51%
    22:00 +18°C° 0 mm 2 mps 755 mmHg 53%
    23:00 +18°C° 0 mm 2 mps 755 mmHg 54%

    25 August, Sunday

    Time Temperature Precipitation Wind Pressure Humidity
    00:00 +17°C° 0 mm 2 mps 755 mmHg 55%
    01:00 +17°C° 0 mm 2 mps 755 mmHg 57%
    02:00 +16°C° 0 mm 1 mps 755 mmHg 58%
    03:00 +16°C° 0 mm 1 mps 755 mmHg 60%
    04:00 +16°C° 0 mm 1 mps 755 mmHg 61%
    05:00 +16°C° 0 mm 1 mps 755 mmHg 62%
    06:00 +16°C° 0 mm 1 mps 754 mmHg 63%
    07:00 +19°C° 0 mm 1 mps 755 mmHg 57%
    08:00 +20°C° 0 mm 2 mps 755 mmHg 51%
    09:00 +23°C° 0 mm 2 mps 755 mmHg 45%
    10:00 +25°C° 0 mm 2 mps 755 mmHg 42%
    11:00 +26°C° 0 mm 3 mps 755 mmHg 38%
    12:00 +27°C° 0 mm 3 mps 754 mmHg 34%
    13:00 +27°C° 0 mm 3 mps 754 mmHg 35%
    14:00 +27°C° 0 mm 4 mps 754 mmHg 36%
    15:00 +28°C° 0 mm 4 mps 754 mmHg 37%
    16:00 +27°C° 0 mm 4 mps 754 mmHg 44%
    17:00 +25°C° 0 mm 4 mps 754 mmHg 51%
    18:00 +23°C° 0 mm 4 mps 754 mmHg 57%
    19:00 +22°C° 0 mm 4 mps 754 mmHg 59%
    20:00 +20°C° 0 mm 4 mps 755 mmHg 60%
    21:00 +18°C° 0 mm 4 mps 755 mmHg 62%
    22:00 +17°C° 0 mm 4 mps 755 mmHg 67%
    23:00 +16°C° 0 mm 3 mps 755 mmHg 72%

    26 August, Monday

    Time Temperature Precipitation Wind Pressure Humidity
    00:00 +14°C° 0 mm 3 mps 756 mmHg 77%
    01:00 +14°C° 0 mm 3 mps 756 mmHg 80%
    02:00 +13°C° 0 mm 3 mps 756 mmHg 84%
    03:00 +13°C° 0 mm 4 mps 756 mmHg 88%
    04:00 +12°C° 0 mm 3 mps 756 mmHg 86%
    05:00 +12°C° 0 mm 3 mps 757 mmHg 84%
    06:00 +12°C° 0 mm 3 mps 757 mmHg 82%
    07:00 +14°C° 0 mm 3 mps 757 mmHg 75%
    08:00 +17°C° 0 mm 4 mps 757 mmHg 67%
    09:00 +19°C° 0 mm 4 mps 758 mmHg 60%
    10:00 +20°C° 0 mm 4 mps 758 mmHg 54%
    11:00 +21°C° 0 mm 4 mps 758 mmHg 48%
    12:00 +23°C° 0 mm 4 mps 758 mmHg 42%
    13:00 +23°C° 0 mm 4 mps 758 mmHg 41%
    14:00 +23°C° 0 mm 4 mps 758 mmHg 40%
    15:00 +23°C° 0 mm 4 mps 758 mmHg 38%
    16:00 +22°C° 0 mm 4 mps 757 mmHg 42%
    17:00 +21°C° 0 mm 3 mps 757 mmHg 45%
    18:00 +20°C° 0 mm 3 mps 757 mmHg 49%
    19:00 +19°C° 0 mm 2 mps 757 mmHg 53%
    20:00 +17°C° 0 mm 2 mps 757 mmHg 56%
    21:00 +15°C° 0 mm 2 mps 757 mmHg 60%
    22:00 +15°C° 0 mm 2 mps 757 mmHg 63%
    23:00 +14°C° 0 mm 1 mps 757 mmHg 67%

    27 August, Tuesday

    Time Temperature Precipitation Wind Pressure Humidity
    00:00 +13°C° 0 mm 1 mps 757 mmHg 70%
    01:00 +13°C° 0 mm 1 mps 757 mmHg 73%
    02:00 +12°C° 0 mm 1 mps 757 mmHg 75%
    03:00 +11°C° 0 mm 0 mps 757 mmHg 78%
    04:00 +11°C° 0 mm 0 mps 757 mmHg 76%
    05:00 +12°C° 0 mm 0 mps 757 mmHg 75%
    06:00 +13°C° 0 mm 1 mps 756 mmHg 73%
    07:00 +15°C° 0 mm 1 mps 756 mmHg 65%
    08:00 +17°C° 0 mm 2 mps 756 mmHg 57%
    09:00 +20°C° 0 mm 3 mps 756 mmHg 49%
    10:00 +21°C° 0 mm 3 mps 755 mmHg 45%
    11:00 +22°C° 0 mm 3 mps 755 mmHg 41%
    12:00 +23°C° 0 mm 4 mps 754 mmHg 38%
    13:00 +25°C° 0 mm 4 mps 754 mmHg 37%
    14:00 +25°C° 0 mm 4 mps 753 mmHg 37%
    15:00 +25°C° 0 mm 5 mps 752 mmHg 37%
    16:00 +23°C° 0 mm 4 mps 752 mmHg 42%
    17:00 +22°C° 0 mm 3 mps 751 mmHg 46%
    18:00 +21°C° 0 mm 3 mps 751 mmHg 50%
    19:00 +20°C° 0.1 mm 3 mps 750 mmHg 54%
    20:00 +19°C° 0.1 mm 3 mps 750 mmHg 58%
    21:00 +18°C° 0.1 mm 3 mps 749 mmHg 62%
    22:00 +17°C° 0.1 mm 2 mps 749 mmHg 67%
    23:00 +16°C° 0.1 mm 2 mps 749 mmHg 73%
    Show more